Location: Newark
(48.6461°N, 4.3644°W)
Time: 19:48:31
(UTC+00:00)

Vanguard 1 Rocket - Visible Passes

Search period start: 18 January 2020 00:00
Search period end: 28 January 2020 00:00
Orbit: 650 x 4226 km, 34.3° (Epoch: 17 January)

Date Brightness Start Highest point End Pass type
(mag) Time Alt. Az. Time Alt. Az. Time Alt. Az.
18 Jan 11.9 18:12:27 10° W 18:30:00 28° SW 18:48:51 10° S visible
19 Jan 12.0 16:58:39 10° W 17:16:36 36° SSW 17:38:13 10° SSE visible
19 Jan 12.2 19:33:54 10° WSW 19:44:13 14° SW 19:54:41 10° SSW visible
20 Jan 12.1 18:16:07 10° W 18:31:33 23° SW 18:48:30 10° S visible
21 Jan 12.1 17:01:48 10° W 17:18:24 31° SW 17:38:40 10° SSE visible
22 Jan 12.3 18:20:35 10° W 18:33:11 18° SW 18:47:03 10° SSW visible
23 Jan 12.2 17:05:18 10° W 17:20:14 26° SW 17:38:32 10° S visible
24 Jan 12.5 18:27:01 10° WSW 18:34:53 13° SW 18:43:20 10° SSW visible
25 Jan 12.4 17:09:21 10° WSW 17:22:07 20° SW 17:37:33 10° S visible
27 Jan 12.6 17:14:34 10° WSW 17:24:04 15° SW 17:35:08 10° SSW visible
